Weather History for Ithaca, NY

Change the Weather History Date:

Sunday, October 20, 2013

  Actual Average Record
Temperature  
Mean Temperature 44 °F -  
Max Temperature 52 °F 53 °F 82 °F (1963)
Min Temperature 39 °F 35 °F 18 °F (1972)
Degree Days  
Heating Degree Days 20    
Moisture  
Dew Point 38 °F    
Average Humidity 77    
Maximum Humidity 96    
Minimum Humidity 59    
Precipitation  
Precipitation 0.00 in - - ()
Sea Level Pressure  
Sea Level Pressure 29.94 in    
Wind  
Wind Speed 7 mph (WSW)    
Max Wind Speed 13 mph    
Max Gust Speed 17 mph    
Visibility 10 miles    
Events Rain    
Averages and records for this station are not official NWS values.
T = Trace of Precipitation, MM = Missing Value Source: NWS Daily Summary

Daily Weather History Graph

Daily Weather History Graph

Search for Another Location

Airport:

Trip Planner

Search our weather history database for the weather conditions in past years. The results will help you decide how hot, cold, wet, or windy it might be!

Date:

Astronomy

Oct. 20, 2013 Rise Set
Actual Time 7:24 AM EDT 6:15 PM EDT
Civil Twilight 6:56 AM EDT 6:44 PM EDT
Nautical Twilight 6:23 AM EDT 7:16 PM EDT
Astronomical Twilight 5:51 AM EDT 7:49 PM EDT
Moon 7:20 PM EDT (10/20) 9:02 AM EDT (10/20)
Length of Visible Light 11h 47m
Length of Day
10h 50m
Full, 97% of the Moon is Illuminated
Oct 20
Full
Oct 26
Last Quarter
Nov 3
New
Nov 10
First Quarter
Nov 17
Full

Hourly Weather History & Observations

Time (EDT) Temp. Windchill Dew Point Humidity Pressure Visibility Wind Dir Wind Speed Gust Speed Precip Events Conditions
12:40 AM 46.4 °F 41.9 °F 39.2 °F 76% 29.79 in 10.0 mi West 9.2 mph - N/A   Mostly Cloudy
12:56 AM 45.9 °F 40.0 °F 38.8 °F 76% 29.80 in 10.0 mi West 12.7 mph - N/A   Mostly Cloudy
1:16 AM 44.6 °F 40.2 °F 37.4 °F 76% 29.80 in 10.0 mi West 8.1 mph 17.3 mph N/A   Overcast
1:56 AM 45.0 °F 40.6 °F 36.9 °F 73% 29.83 in 10.0 mi West 8.1 mph - N/A   Overcast
2:56 AM 43.9 °F - 37.9 °F 80% 29.84 in 10.0 mi Calm Calm - N/A   Overcast
3:56 AM 45.0 °F 39.3 °F 37.9 °F 76% 29.85 in 10.0 mi West 11.5 mph - N/A   Overcast
4:56 AM 43.0 °F 37.7 °F 36.9 °F 79% 29.87 in 10.0 mi WSW 9.2 mph - N/A   Scattered Clouds
5:56 AM 41.9 °F 39.0 °F 36.9 °F 82% 29.88 in 10.0 mi SW 4.6 mph - N/A   Mostly Cloudy
6:21 AM 41.0 °F - 37.4 °F 87% 29.87 in 10.0 mi Calm Calm - N/A   Mostly Cloudy
6:56 AM 43.0 °F 39.5 °F 36.9 °F 79% 29.89 in 10.0 mi SW 5.8 mph - N/A   Mostly Cloudy
7:56 AM 43.0 °F 37.7 °F 36.9 °F 79% 29.91 in 10.0 mi WSW 9.2 mph - N/A   Overcast
8:56 AM 45.0 °F 40.6 °F 36.9 °F 73% 29.93 in 10.0 mi SW 8.1 mph - N/A   Scattered Clouds
9:56 AM 47.8 °F - 37.9 °F 69% 29.94 in 10.0 mi SW 10.4 mph - N/A   Scattered Clouds
10:56 AM 47.8 °F - 36.9 °F 66% 29.96 in 10.0 mi West 8.1 mph - N/A   Mostly Cloudy
11:56 AM 47.8 °F - 37.9 °F 69% 29.98 in 10.0 mi West 8.1 mph - N/A   Mostly Cloudy
12:56 PM 50.9 °F - 36.9 °F 59% 29.97 in 10.0 mi West 8.1 mph - N/A   Mostly Cloudy
1:56 PM 50.9 °F - 36.9 °F 59% 29.98 in 10.0 mi WSW 9.2 mph - N/A   Overcast
2:56 PM 50.0 °F - 37.9 °F 63% 29.98 in 10.0 mi WSW 10.4 mph - N/A   Overcast
3:56 PM 48.9 °F - 38.8 °F 68% 29.99 in 10.0 mi West 5.8 mph - N/A   Overcast
4:56 PM 50.0 °F - 38.8 °F 66% 29.99 in 10.0 mi West 3.5 mph - N/A   Overcast
5:56 PM 47.8 °F - 41.9 °F 80% 30.01 in 10.0 mi Calm Calm - N/A   Overcast
6:56 PM 45.9 °F - 41.9 °F 86% 30.02 in 10.0 mi Calm Calm - 0.00 in Rain Light Rain
7:56 PM 43.0 °F - 41.0 °F 93% 30.02 in 10.0 mi Calm Calm - 0.00 in   Mostly Cloudy
8:56 PM 43.0 °F 41.3 °F 41.0 °F 93% 30.03 in 10.0 mi East 3.5 mph - N/A   Mostly Cloudy
9:56 PM 39.9 °F 35.8 °F 38.8 °F 96% 30.04 in 10.0 mi East 5.8 mph - N/A   Scattered Clouds
10:56 PM 39.9 °F - 38.8 °F 96% 30.04 in 10.0 mi Calm Calm - N/A   Mostly Cloudy
11:56 PM 41.9 °F 40.0 °F 39.9 °F 93% 30.04 in 10.0 mi SE 3.5 mph - N/A   Overcast